Back to catalog

STARLINK-33666

AliveCommunicationsVLEO
NORAD 63592·PAYLOAD·🇺🇸 United States

Launched Apr 14, 2025 from Cape Canaveral Space Force Station

Loading…

Next Passes (next 24 hours)

TLE

FreshSource: CelesTrak SupGP

Epoch: Sep 14, 2026, 20:55 UTC

1 63592C 25076Z   26257.87201389 -.00025731  00000+0 -93296-3 0  2573
2 63592  43.0020 333.4578 0001814 257.0057  24.1172 15.27555379    16

Track STARLINK-33666 in real time with AllMySat

Download on the App Store